Regional Weather Roundup
Issued by NWS

Home | Current Version | Previous Version | Text Only | Print | Product List | Glossary Off
Versions: 1 2 3 4 5 6 7 8 9 10 11 12 13 14 15 16 17 18 19 20 21 22 23 24 25 26 27 28 29 30 31 32 33 34 35 36 37 38 39 40 41 42 43 44 45 46 47 48 49 50

000
ASUS45 KCYS 010310
RWRWY

WYOMING REGIONAL WEATHER ROUNDUP
NATIONAL WEATHER SERVICE CHEYENNE WY
900 PM MDT FRI JUL 31 2015

NOTE:  "FAIR" INDICATES FEW OR NO CLOUDS BELOW 12,000 FEET
WITH NO SIGNIFICANT WEATHER AND/OR OBSTRUCTIONS TO VISIBILITY.

WYZ001-010400-
YELLOWSTONE NATIONAL PARK

CITY           SKY/WX    TMP DP  RH WIND       PRES   REMARKS
LK YELLOWSTONE   N/A     59  36  42 NW3       30.44S
W YELLOWSTONE  NOT AVBL

$$
WYZ002>013-054>058-071-098>099-010400-
NORTHERN WYOMING

CITY           SKY/WX    TMP DP  RH WIND       PRES   REMARKS
JACKSON        NOT AVBL
CODY           FAIR      77  41  27 N3        30.20R
GREYBULL       FAIR      86  30  13 NW6       30.06S
WORLAND        FAIR      80  40  23 NE6       30.08S
SHERIDAN       FAIR      74  46  36 SE5       30.10S
BUFFALO        FAIR      74  41  30 W10       30.19R
GILLETTE       FAIR      77  48  35 SE9       30.13R
HULETT         FAIR      72  50  46 E6        30.14S
NEWCASTLE      FAIR      77  45  31 E8G16     30.14R

$$
WYZ014>020-022>026-101>103-010400-
CENTRAL WYOMING

CITY           SKY/WX    TMP DP  RH WIND       PRES   REMARKS
BIG PINEY      FAIR      68  23  18 N10       30.33R
PINEDALE       FAIR      64  36  34 NW7       30.35R
DUBOIS         FAIR      70  23  17 NW9       30.33S
LANDER         FAIR      78  33  19 SW10      30.16R
RIVERTON       FAIR      78  29  16 NE8       30.17R
CASPER         FAIR      75  33  21 NE8       30.16S
DOUGLAS        FAIR      76  44  32 SE9       30.16S

$$
WYZ021-027>030-104>119-010400-
SOUTHERN WYOMING

CITY           SKY/WX    TMP DP  RH WIND       PRES   REMARKS
EVANSTON       FAIR      71  23  16 N9        30.35R
KEMMERER       FAIR      70  27  19 NW9       30.36R
FORT BRIDGER   CLEAR     75  21  13 NW7       30.36R
ROCK SPRINGS   FAIR      75  19  12 NW10      30.28R
DIXON          FAIR      70  21  15 NE5       30.27R
RAWLINS        FAIR      68  21  16 N9        30.28R
SARATOGA       FAIR      72  28  20 CALM      30.30S
LARAMIE        FAIR      65  46  50 SE8       30.34S
CHEYENNE       FAIR      72  48  42 SE12      30.28S
TORRINGTON     FAIR      76  53  44 E9        30.14R
PINE BLUFFS    FAIR      68  46  45 SE5       30.22S

$$



USA.gov is the U.S. government's official web portal to all federal, state and local government web resources and services.